DW1234 Weather Reports


Display with metric or nautical units.
time (UTC)temp
F
wind
direction
speed
MPH
gust
MPH
rain 1hr
in
rain 24hr
in
rain mn
in
humidity
%
barometer
mb
20260510093230 48 5 4.0 5.0 0.00 0.00 0.00 50 1020.4
20260510093024 47 5 3.0 5.0 0.00 0.00 0.00 49 1019.6
20260510092743 48 19 3.0 4.0 0.00 0.00 0.00 49 1020.4
20260510092235 48 34 3.0 4.0 0.00 0.00 0.00 49 1020.4
20260510091747 48 40 2.0 4.0 0.00 0.00 0.00 49 1020.4
20260510091509 47 40 2.0 5.0 0.00 0.00 0.00 49 1019.5
20260510091227 48 32 3.0 6.0 0.00 0.00 0.00 50 1020.3
20260510090737 48 32 4.0 8.0 0.00 0.00 0.00 49 1020.2
20260510090222 48 22 4.0 8.0 0.00 0.00 0.00 48 1020.0
20260510090008 47 45 5.0 8.0 0.00 0.00 0.00 48 1019.1
20260510085755 48 355 5.0 8.0 0.00 0.00 0.00 48 1019.9
20260510085246 48 24 4.0 6.0 0.00 0.00 0.00 47 1020.0
20260510084727 48 24 4.0 6.0 0.00 0.00 0.00 47 1020.0
20260510084558 48 32 3.0 5.0 0.00 0.00 0.00 47 1019.2
20260510084241 48 32 3.0 4.0 0.00 0.00 0.00 47 1020.0
20260510083722 49 19 3.0 4.0 0.00 0.00 0.00 46 1020.1
20260510083309 49 35 3.0 4.0 0.00 0.00 0.00 45 1020.2
20260510083020 48 5 2.0 4.0 0.00 0.00 0.00 46 1019.3
20260510082733 49 355 2.0 3.0 0.00 0.00 0.00 45 1020.0
20260510082243 49 355 2.0 2.0 0.00 0.00 0.00 45 1020.0
20260510081727 49 355 1.0 3.0 0.00 0.00 0.00 45 1020.0
20260510081532 49 355 1.0 3.0 0.00 0.00 0.00 45 1019.1
20260510081241 50 355 2.0 3.0 0.00 0.00 0.00 44 1020.0
20260510080722 50 355 2.0 4.0 0.00 0.00 0.00 45 1020.0
20260510080250 50 355 2.0 4.0 0.00 0.00 0.00 44 1020.0
20260510080002 50 355 2.0 4.0 0.00 0.00 0.00 44 1019.2
20260510075738 50 340 3.0 4.0 0.00 0.00 0.00 44 1020.0
20260510075249 50 340 3.0 4.0 0.00 0.00 0.00 44 1020.0
20260510074732 50 5 2.0 3.0 0.00 0.00 0.00 44 1019.9
20260510074512 50 5 1.0 5.0 0.00 0.00 0.00 44 1019.0
20260510074245 51 5 2.0 5.0 0.00 0.00 0.00 44 1019.8
20260510073725 51 5 3.0 5.0 0.00 0.00 0.00 44 1019.6
20260510073238 51 348 2.0 4.0 0.00 0.00 0.00 43 1019.7
20260510073015 51 349 1.0 3.0 0.00 0.00 0.00 43 1018.8
20260510072749 52 13 2.0 3.0 0.00 0.00 0.00 43 1019.5
20260510072226 52 13 2.0 3.0 0.00 0.00 0.00 42 1019.5
20260510071738 52 19 3.0 5.0 0.00 0.00 0.00 42 1019.5
20260510071519 52 19 2.0 5.0 0.00 0.00 0.00 42 1018.6
20260510071251 52 19 3.0 5.0 0.00 0.00 0.00 41 1019.4
20260510070741 53 12 3.0 3.0 0.00 0.00 0.00 41 1019.5
20260510070225 53 12 2.0 8.0 0.00 0.00 0.00 41 1019.4
20260510070056 52 12 2.0 8.0 0.00 0.00 0.00 41 1018.5
20260510065755 53 10 4.0 8.0 0.00 0.00 0.00 41 1019.4
20260510065245 53 5 4.0 9.0 0.00 0.00 0.00 41 1019.3
20260510064723 54 18 6.0 9.0 0.00 0.00 0.00 41 1019.2
20260510064531 53 9 4.0 9.0 0.00 0.00 0.00 41 1018.3
20260510064235 54 360 6.0 11.0 0.00 0.00 0.00 40 1019.2
20260510063806 54 360 7.0 12.0 0.00 0.00 0.00 40 1019.0
20260510063227 54 9 8.0 12.0 0.00 0.00 0.00 40 1019.1
20260510063010 54 351 9.0 12.0 0.00 0.00 0.00 39 1018.1
20260510062740 54 12 8.0 11.0 0.00 0.00 0.00 39 1019.1
20260510062223 55 355 8.0 10.0 0.00 0.00 0.00 39 1019.0
20260510061734 55 360 8.0 12.0 0.00 0.00 0.00 39 1019.1
20260510061556 54 344 7.0 12.0 0.00 0.00 0.00 39 1018.2
20260510061241 55 13 9.0 12.0 0.00 0.00 0.00 39 1019.0
20260510060750 55 5 8.0 10.0 0.00 0.00 0.00 40 1018.9
20260510060301 56 347 7.0 10.0 0.00 0.00 0.00 40 1018.6
20260510060008 55 360 6.0 10.0 0.00 0.00 0.00 40 1017.6
20260510055722 56 5 8.0 10.0 0.00 0.00 0.00 39 1018.5
20260510055234 56 5 8.0 10.0 0.00 0.00 0.00 39 1018.5
20260510054746 56 35 7.0 11.0 0.00 0.00 0.00 39 1018.3
20260510054552 56 360 7.0 12.0 0.00 0.00 0.00 39 1017.3
20260510054232 57 14 8.0 12.0 0.00 0.00 0.00 39 1018.0
20260510053741 57 355 9.0 12.0 0.00 0.00 0.00 39 1017.9
20260510053226 57 15 9.0 12.0 0.00 0.00 0.00 38 1017.8
20260510053059 56 12 8.0 12.0 0.00 0.00 0.00 38 1016.9
20260510052738 57 355 8.0 12.0 0.00 0.00 0.00 38 1017.8
20260510052249 57 22 8.0 11.0 0.00 0.00 0.00 38 1017.7
20260510051740 58 9 7.0 11.0 0.00 0.00 0.00 38 1017.5
20260510051546 57 13 7.0 11.0 0.00 0.00 0.00 38 1016.5
20260510051230 58 17 7.0 12.0 0.00 0.00 0.00 37 1017.5
20260510050741 58 5 8.0 12.0 0.00 0.00 0.00 37 1017.5
20260510050249 58 15 9.0 12.0 0.00 0.00 0.00 37 1017.4
20260510050013 58 5 8.0 15.0 0.00 0.00 0.00 37 1016.4
20260510045733 59 5 8.0 15.0 0.00 0.00 0.00 37 1017.4
20260510045244 59 19 9.0 15.0 0.00 0.00 0.00 37 1017.3
20260510044726 59 5 8.0 11.0 0.00 0.00 0.00 37 1017.3
20260510044520 59 17 7.0 11.0 0.00 0.00 0.00 37 1016.3
20260510044240 59 28 8.0 11.0 0.00 0.00 0.00 36 1017.3
20260510043810 60 20 8.0 11.0 0.00 0.00 0.00 36 1017.1
20260510043232 60 9 7.0 14.0 0.00 0.00 0.00 36 1017.0
20260510043100 59 17 6.0 14.0 0.00 0.00 0.00 36 1016.1
20260510042800 60 19 7.0 14.0 0.00 0.00 0.00 36 1017.0
20260510042223 60 9 9.0 16.0 0.00 0.00 0.00 36 1016.9
20260510041735 60 360 12.0 19.0 0.00 0.00 0.00 35 1016.8
20260510041536 60 13 12.0 19.0 0.00 0.00 0.00 35 1015.8
20260510041248 61 13 12.0 16.0 0.00 0.00 0.00 35 1016.6
20260510040739 61 21 10.0 14.0 0.00 0.00 0.00 36 1016.6
20260510040222 61 20 10.0 14.0 0.00 0.00 0.00 35 1016.4
20260510040015 61 28 9.0 16.0 0.00 0.00 0.00 36 1015.5
20260510035734 61 13 9.0 16.0 0.00 0.00 0.00 36 1016.4
20260510035241 61 5 10.0 16.0 0.00 0.00 0.00 35 1016.3
20260510034725 62 31 10.0 15.0 0.00 0.00 0.00 36 1016.3
20260510034509 61 11 10.0 15.0 0.00 0.00 0.00 35 1015.2
20260510034238 62 9 10.0 15.0 0.00 0.00 0.00 35 1016.2
20260510033748 62 25 10.0 14.0 0.00 0.00 0.00 35 1016.0
20260510033233 62 9 8.0 15.0 0.00 0.00 0.00 35 1015.9
20260510033012 62 360 10.0 15.0 0.00 0.00 0.00 35 1014.9
20260510032743 63 360 9.0 15.0 0.00 0.00 0.00 36 1015.8
20260510032226 63 360 9.0 13.0 0.00 0.00 0.00 36 1015.8
20260510031738 63 17 8.0 15.0 0.00 0.00 0.00 35 1015.7
20260510031517 62 37 9.0 16.0 0.00 0.00 0.00 35 1014.7
20260510031223 63 20 11.0 16.0 0.00 0.00 0.00 35 1015.6
20260510030728 63 360 11.0 16.0 0.00 0.00 0.00 35 1015.4
20260510030241 63 355 9.0 13.0 0.00 0.00 0.00 36 1015.3
20260510030018 63 26 9.0 13.0 0.00 0.00 0.00 35 1014.2
20260510025726 63 5 7.0 10.0 0.00 0.00 0.00 36 1015.2
20260510025237 64 12 4.0 9.0 0.00 0.00 0.00 36 1015.1
20260510024747 64 9 5.0 10.0 0.00 0.00 0.00 35 1015.0
20260510024532 63 28 5.0 11.0 0.00 0.00 0.00 35 1014.0
20260510024233 64 17 7.0 11.0 0.00 0.00 0.00 35 1014.9
20260510023744 64 355 7.0 11.0 0.00 0.00 0.00 34 1014.8
20260510023225 65 360 8.0 13.0 0.00 0.00 0.00 34 1014.7
20260510023022 64 360 8.0 13.0 0.00 0.00 0.00 34 1013.6
20260510022733 65 360 9.0 13.0 0.00 0.00 0.00 34 1014.6
20260510022306 66 360 8.0 12.0 0.00 0.00 0.00 33 1014.4
20260510021724 66 360 9.0 12.0 0.00 0.00 0.00 33 1014.3
20260510021502 66 355 8.0 13.0 0.00 0.00 0.00 33 1013.2
20260510021235 66 13 9.0 13.0 0.00 0.00 0.00 33 1014.2
20260510020746 67 11 10.0 16.0 0.00 0.00 0.00 33 1014.1
20260510020231 67 5 9.0 16.0 0.00 0.00 0.00 33 1014.0
20260510020004 66 355 11.0 16.0 0.00 0.00 0.00 33 1012.9
20260510015741 67 346 11.0 15.0 0.00 0.00 0.00 33 1013.9
20260510015248 67 18 11.0 14.0 0.00 0.00 0.00 34 1013.7
20260510014729 67 347 11.0 16.0 0.00 0.00 0.00 34 1013.6
20260510014546 67 355 11.0 16.0 0.00 0.00 0.00 35 1012.5
20260510014241 67 360 11.0 16.0 0.00 0.00 0.00 35 1013.5
20260510013752 68 345 10.0 19.0 0.00 0.00 0.00 35 1013.4
20260510013244 68 5 14.0 19.0 0.00 0.00 0.00 35 1013.2
20260510013020 67 360 11.0 16.0 0.00 0.00 0.00 35 1012.1
20260510012726 68 355 10.0 16.0 0.00 0.00 0.00 36 1013.2
20260510012238 68 5 11.0 17.0 0.00 0.00 0.00 37 1013.1
20260510011745 68 355 10.0 17.0 0.00 0.00 0.00 37 1013.0
20260510011556 68 27 11.0 17.0 0.00 0.00 0.00 37 1011.9
20260510011259 68 5 10.0 13.0 0.00 0.00 0.00 37 1012.9
20260510010747 68 5 9.0 14.0 0.00 0.00 0.00 37 1012.8
20260510010232 69 355 10.0 14.0 0.00 0.00 0.00 37 1012.8
20260510010040 68 5 9.0 14.0 0.00 0.00 0.00 37 1011.7
20260510005744 69 17 10.0 16.0 0.00 0.00 0.00 37 1012.8
20260510005227 69 13 12.0 16.0 0.00 0.00 0.00 37 1012.8
20260510004739 69 30 10.0 17.0 0.00 0.00 0.00 37 1012.6
20260510004544 69 360 11.0 17.0 0.00 0.00 0.00 37 1011.4
20260510004247 69 9 12.0 17.0 0.00 0.00 0.00 38 1012.4
20260510003730 69 40 11.0 15.0 0.00 0.00 0.00 38 1012.4
20260510003240 69 26 10.0 16.0 0.00 0.00 0.00 39 1012.3
20260510003049 69 29 10.0 16.0 0.00 0.00 0.00 39 1011.1
20260510002724 70 5 12.0 18.0 0.00 0.00 0.00 40 1012.2
20260510002235 70 12 11.0 18.0 0.00 0.00 0.00 41 1012.1
20260510001747 70 360 12.0 17.0 0.00 0.00 0.00 42 1012.2
20260510001530 69 343 9.0 13.0 0.00 0.00 0.00 43 1011.1
20260510001239 70 344 10.0 13.0 0.00 0.00 0.00 42 1012.2
20260510000722 70 355 9.0 15.0 0.00 0.00 0.00 43 1012.2
20260510000229 70 355 11.0 17.0 0.00 0.00 0.00 43 1012.2
20260510000041 69 343 9.0 17.0 0.00 0.00 0.00 43 1011.1
20260509235741 70 13 13.0 17.0 0.00 0.00 0.00 42 1012.3
20260509235223 70 355 12.0 17.0 0.00 0.00 0.00 42 1012.3
20260509234737 70 340 12.0 19.0 0.00 0.00 0.00 42 1012.3
20260509234546 69 5 10.0 20.0 0.00 0.00 0.00 42 1011.2
20260509234249 70 11 12.0 20.0 0.00 0.00 0.00 42 1012.3
20260509233732 70 27 15.0 20.0 0.00 0.00 0.00 42 1012.2
20260509233242 70 355 14.0 20.0 0.00 0.00 0.00 42 1012.1
20260509233048 70 355 14.0 20.0 0.00 0.00 0.00 43 1011.0
20260509232725 70 340 13.0 21.0 0.00 0.00 0.00 43 1012.2
20260509232234 70 355 12.0 24.0 0.00 0.00 0.00 43 1012.2
20260509231804 70 350 17.0 24.0 0.00 0.00 0.00 42 1012.0
20260509231532 70 17 17.0 24.0 0.00 0.00 0.00 42 1010.8
20260509231230 71 325 15.0 24.0 0.00 0.00 0.00 42 1012.0
20260509230737 71 5 19.0 24.0 0.00 0.00 0.00 42 1011.8
20260509230308 71 355 15.0 23.0 0.00 0.00 0.00 42 1011.9
20260509230012 70 13 17.0 23.0 0.00 0.00 0.00 42 1010.7
20260509225729 71 360 17.0 26.0 0.00 0.00 0.00 43 1011.8
20260509225257 71 355 18.0 28.0 0.00 0.00 0.00 43 1011.8
20260509224722 71 346 20.0 28.0 0.00 0.00 0.00 42 1011.8
20260509224547 71 349 18.0 26.0 0.00 0.00 0.00 43 1010.5
20260509224234 72 355 17.0 26.0 0.00 0.00 0.00 42 1011.7
20260509223746 72 360 17.0 24.0 0.00 0.00 0.00 42 1011.6
20260509223231 72 15 12.0 22.0 0.00 0.00 0.00 42 1011.6
20260509223052 72 348 13.0 22.0 0.00 0.00 0.00 41 1010.5
20260509222803 73 360 16.0 22.0 0.00 0.00 0.00 41 1011.6
20260509222224 73 355 15.0 21.0 0.00 0.00 0.00 41 1011.6
20260509221753 74 339 15.0 24.0 0.00 0.00 0.00 40 1011.6
20260509221510 73 24 15.0 24.0 0.00 0.00 0.00 40 1010.4
20260509221245 73 9 15.0 24.0 0.00 0.00 0.00 42 1011.6
20260509220734 72 355 17.0 23.0 0.00 0.00 0.00 41 1011.5
20260509220245 72 360 14.0 24.0 0.00 0.00 0.00 41 1011.4
20260509220029 71 343 14.0 24.0 0.00 0.00 0.00 42 1010.3
20260509215728 72 355 17.0 24.0 0.00 0.00 0.00 41 1011.4
20260509215242 72 34 18.0 24.0 0.00 0.00 0.00 40 1011.4
20260509214721 71 18 18.0 23.0 0.00 0.00 0.00 40 1011.2
20260509214535 71 328 15.0 23.0 0.00 0.00 0.00 40 1010.2
20260509214251 71 355 16.0 23.0 0.00 0.00 0.00 39 1011.3
20260509213733 72 360 14.0 21.0 0.00 0.00 0.00 39 1011.2
20260509213245 72 333 14.0 24.0 0.00 0.00 0.00 39 1011.2
20260509213034 71 355 14.0 24.0 0.00 0.00 0.00 38 1010.0
20260509212728 72 360 17.0 23.0 0.00 0.00 0.00 37 1011.1
20260509212239 72 19 17.0 23.0 0.00 0.00 0.00 37 1011.0
20260509211723 72 15 18.0 28.0 0.00 0.00 0.00 37 1010.9
20260509211546 72 344 17.0 28.0 0.00 0.00 0.00 37 1009.7
20260509211237 73 355 21.0 28.0 0.00 0.00 0.00 37 1010.8
20260509210802 73 9 17.0 24.0 0.00 0.00 0.00 37 1010.8
20260509210223 73 346 16.0 31.0 0.00 0.00 0.00 38 1010.8
20260509210029 72 345 17.0 31.0 0.00 0.00 0.00 38 1009.5
20260509205736 73 355 20.0 31.0 0.00 0.00 0.00 37 1010.6
20260509205247 74 355 22.0 30.0 0.00 0.00 0.00 36 1010.4
20260509204730 75 360 19.0 24.0 0.00 0.00 0.00 34 1010.3
20260509204532 75 348 19.0 24.0 0.00 0.00 0.00 34 1009.1
20260509204244 76 347 19.0 25.0 0.00 0.00 0.00 32 1010.2
20260509203727 76 5 17.0 25.0 0.00 0.00 0.00 31 1010.2
20260509203240 77 13 14.0 22.0 0.00 0.00 0.00 30 1010.0
20260509203032 77 39 15.0 22.0 0.00 0.00 0.00 29 1009.0
20260509202747 78 342 15.0 22.0 0.00 0.00 0.00 28 1010.1
20260509202231 79 360 13.0 20.0 0.00 0.00 0.00 29 1009.9
20260509201740 79 355 16.0 22.0 0.00 0.00 0.00 27 1009.9
20260509201526 78 10 12.0 22.0 0.00 0.00 0.00 28 1008.7
20260509201224 80 15 17.0 22.0 0.00 0.00 0.00 26 1009.8
20260509200735 80 319 8.0 18.0 0.00 0.00 0.00 27 1009.7
20260509200308 80 360 10.0 18.0 0.00 0.00 0.00 24 1009.8
20260509200012 80 339 9.0 18.0 0.00 0.00 0.00 27 1008.6
20260509195730 79 325 4.0 17.0 0.00 0.00 0.00 26 1009.8
20260509195234 79 355 10.0 19.0 0.00 0.00 0.00 27 1009.8
20260509194746 80 342 8.0 19.0 0.00 0.00 0.00 25 1009.7
20260509194522 79 41 7.0 16.0 0.00 0.00 0.00 26 1008.5
20260509194231 80 334 12.0 16.0 0.00 0.00 0.00 26 1009.7
20260509193738 79 9 8.0 16.0 0.00 0.00 0.00 26 1009.7
20260509193224 79 315 9.0 16.0 0.00 0.00 0.00 27 1009.7
20260509193026 80 329 7.0 14.0 0.00 0.00 0.00 29 1008.5
20260509192734 80 313 9.0 14.0 0.00 0.00 0.00 26 1009.7
20260509192243 80 355 10.0 14.0 0.00 0.00 0.00 26 1009.7
20260509191731 79 5 6.0 14.0 0.00 0.00 0.00 25 1009.6
20260509191506 79 24 6.0 14.0 0.00 0.00 0.00 25 1008.4
20260509191240 80 5 8.0 14.0 0.00 0.00 0.00 24 1009.6
20260509190722 78 32 5.0 13.0 0.00 0.00 0.00 29 1009.6
20260509190232 77 306 6.0 13.0 0.00 0.00 0.00 28 1009.6
20260509190009 77 343 4.0 16.0 0.00 0.00 0.00 27 1008.5
20260509185744 77 314 7.0 16.0 0.00 0.00 0.00 27 1009.7
20260509185227 78 355 10.0 16.0 0.00 0.00 0.00 25 1009.7
20260509184740 77 12 5.0 17.0 0.00 0.00 0.00 27 1009.8
20260509184520 77 355 6.0 17.0 0.00 0.00 0.00 27 1008.6
20260509184224 77 323 10.0 17.0 0.00 0.00 0.00 27 1009.7
20260509183734 78 341 11.0 18.0 0.00 0.00 0.00 27 1009.8
20260509183241 78 328 12.0 20.0 0.00 0.00 0.00 27 1009.8
20260509183017 77 355 8.0 20.0 0.00 0.00 0.00 26 1008.6
20260509182725 78 360 14.0 20.0 0.00 0.00 0.00 27 1009.7
20260509182238 78 5 8.0 18.0 0.00 0.00 0.00 27 1009.7
20260509181722 77 11 13.0 18.0 0.00 0.00 0.00 29 1009.6
20260509181511 76 346 11.0 17.0 0.00 0.00 0.00 29 1008.4
20260509181254 76 336 13.0 17.0 0.00 0.00 0.00 29 1009.5
20260509180743 76 345 9.0 19.0 0.00 0.00 0.00 28 1009.5
20260509180227 76 9 14.0 19.0 0.00 0.00 0.00 28 1009.5
20260509180108 76 355 11.0 19.0 0.00 0.00 0.00 29 1008.2
20260509175735 77 360 8.0 17.0 0.00 0.00 0.00 28 1009.5
20260509175247 77 14 8.0 15.0 0.00 0.00 0.00 28 1009.4
20260509174732 76 14 11.0 17.0 0.00 0.00 0.00 29 1009.5
20260509174505 76 350 6.0 19.0 0.00 0.00 0.00 29 1008.3
20260509174246 77 355 10.0 19.0 0.00 0.00 0.00 28 1009.4
20260509173726 77 339 11.0 19.0 0.00 0.00 0.00 30 1009.4
20260509173236 77 349 11.0 19.0 0.00 0.00 0.00 28 1009.5
20260509173007 77 17 8.0 19.0 0.00 0.00 0.00 29 1008.3
20260509172806 77 340 10.0 19.0 0.00 0.00 0.00 32 1009.5
20260509172229 77 15 10.0 15.0 0.00 0.00 0.00 30 1009.6
20260509171739 76 355 11.0 15.0 0.00 0.00 0.00 29 1009.5
20260509171556 76 17 11.0 14.0 0.00 0.00 0.00 30 1008.3
20260509171251 77 313 7.0 13.0 0.00 0.00 0.00 33 1009.5
20260509170733 76 13 5.0 13.0 0.00 0.00 0.00 34 1009.6
20260509170244 76 55 3.0 14.0 0.00 0.00 0.00 36 1009.7
20260509170059 75 336 4.0 15.0 0.00 0.00 0.00 33 1008.5
20260509165727 75 61 7.0 15.0 0.00 0.00 0.00 34 1009.7
20260509165240 75 331 11.0 14.0 0.00 0.00 0.00 32 1009.7
20260509164724 74 38 10.0 16.0 0.00 0.00 0.00 32 1009.7
20260509164555 74 5 9.0 16.0 0.00 0.00 0.00 32 1008.5
20260509164237 74 40 11.0 16.0 0.00 0.00 0.00 33 1009.7
20260509163745 74 355 10.0 16.0 0.00 0.00 0.00 31 1009.6
20260509163228 74 15 11.0 16.0 0.00 0.00 0.00 32 1009.6
20260509163003 74 5 11.0 16.0 0.00 0.00 0.00 37 1008.4
20260509162740 74 355 9.0 16.0 0.00 0.00 0.00 35 1009.5
20260509162222 73 21 10.0 17.0 0.00 0.00 0.00 34 1009.5
20260509161734 73 38 10.0 17.0 0.00 0.00 0.00 34 1009.5
20260509161512 73 5 12.0 16.0 0.00 0.00 0.00 33 1008.3
20260509161247 74 20 11.0 16.0 0.00 0.00 0.00 34 1009.6
20260509160731 73 355 9.0 19.0 0.00 0.00 0.00 36 1009.5
20260509160242 72 5 13.0 22.0 0.00 0.00 0.00 36 1009.6
20260509160053 71 5 15.0 22.0 0.00 0.00 0.00 33 1008.3
20260509155749 72 344 15.0 22.0 0.00 0.00 0.00 34 1009.5
20260509155239 72 339 11.0 19.0 0.00 0.00 0.00 36 1009.6
20260509154723 72 15 13.0 18.0 0.00 0.00 0.00 35 1009.6
20260509154544 71 346 11.0 18.0 0.00 0.00 0.00 36 1008.4
20260509154237 72 5 13.0 20.0 0.00 0.00 0.00 35 1009.6
20260509153748 72 338 12.0 20.0 0.00 0.00 0.00 36 1009.7
20260509153230 72 332 14.0 23.0 0.00 0.00 0.00 36 1009.6
20260509153045 72 360 13.0 23.0 0.00 0.00 0.00 34 1008.5
20260509152743 74 11 17.0 23.0 0.00 0.00 0.00 34 1009.6
20260509152224 73 329 6.0 27.0 0.00 0.00 0.00 36 1009.5
20260509151735 74 323 17.0 27.0 0.00 0.00 0.00 34 1009.5
20260509151555 74 329 10.0 15.0 0.00 0.00 0.00 36 1008.4
20260509151246 73 336 8.0 11.0 0.00 0.00 0.00 36 1009.1
20260509150727 72 209 9.0 11.0 0.00 0.00 0.00 37 1008.7
20260509150259 72 227 7.0 13.0 0.00 0.00 0.00 38 1008.7
20260509150030 71 227 7.0 11.0 0.00 0.00 0.00 38 1007.5
20260509145746 72 228 7.0 11.0 0.00 0.00 0.00 40 1008.6
20260509145231 70 182 6.0 9.0 0.00 0.00 0.00 40 1008.8
20260509144735 69 210 6.0 10.0 0.00 0.00 0.00 39 1008.8
20260509144603 68 214 6.0 10.0 0.00 0.00 0.00 41 1007.7
20260509144500 68 209 6.0 11.0 0.00 0.00 0.00 42 1007.7
20260509144245 69 220 7.0 11.0 0.00 0.00 0.00 40 1008.8
20260509143733 69 216 7.0 11.0 0.00 0.00 0.00 39 1008.7
20260509143244 69 220 6.0 10.0 0.00 0.00 0.00 41 1008.8
20260509143028 68 200 6.0 10.0 0.00 0.00 0.00 40 1007.7
20260509142733 69 223 8.0 10.0 0.00 0.00 0.00 38 1008.9
20260509142242 69 174 6.0 12.0 0.00 0.00 0.00 40 1008.9
20260509141724 67 205 9.0 12.0 0.00 0.00 0.00 39 1009.0
20260509141541 67 207 8.0 12.0 0.00 0.00 0.00 38 1008.0
20260509141233 67 200 7.0 10.0 0.00 0.00 0.00 41 1008.9
20260509140743 66 219 6.0 10.0 0.00 0.00 0.00 41 1008.9
20260509140224 66 217 6.0 8.0 0.00 0.00 0.00 44 1008.9
20260509140035 65 233 5.0 9.0 0.00 0.00 0.00 44 1007.8
20260509135735 65 221 5.0 8.0 0.00 0.00 0.00 44 1008.9
20260509135245 64 238 6.0 9.0 0.00 0.00 0.00 44 1008.9
20260509134725 64 220 6.0 9.0 0.00 0.00 0.00 45 1008.8
20260509134533 63 208 4.0 9.0 0.00 0.00 0.00 46 1007.8
20260509134238 64 228 6.0 9.0 0.00 0.00 0.00 47 1008.8
20260509133743 63 229 6.0 10.0 0.00 0.00 0.00 47 1008.7
20260509133225 62 227 7.0 10.0 0.00 0.00 0.00 49 1008.8
20260509133038 61 217 5.0 9.0 0.00 0.00 0.00 50 1007.7
20260509132737 61 209 6.0 9.0 0.00 0.00 0.00 51 1008.8
20260509132251 60 197 5.0 7.0 0.00 0.00 0.00 55 1008.8
20260509131734 59 219 5.0 7.0 0.00 0.00 0.00 56 1008.8
20260509131549 58 215 5.0 7.0 0.00 0.00 0.00 55 1007.8
20260509131305 58 213 3.0 6.0 0.00 0.00 0.00 56 1008.8
20260509130725 57 213 4.0 7.0 0.00 0.00 0.00 57 1008.8
20260509130237 56 224 5.0 7.0 0.00 0.00 0.00 58 1008.8
20260509130036 55 217 4.0 6.0 0.00 0.00 0.00 60 1007.8
20260509125744 55 255 4.0 7.0 0.00 0.00 0.00 60 1008.8
20260509125227 54 239 4.0 5.0 0.00 0.00 0.00 61 1008.8
20260509124739 53 229 3.0 5.0 0.00 0.00 0.00 64 1008.7
20260509124540 53 219 3.0 5.0 0.00 0.00 0.00 64 1007.8
20260509124252 53 219 3.0 7.0 0.00 0.00 0.00 64 1008.8
20260509123733 52 219 4.0 7.0 0.00 0.00 0.00 64 1008.7
20260509123246 52 218 4.0 6.0 0.00 0.00 0.00 65 1008.7
20260509123050 51 221 3.0 5.0 0.00 0.00 0.00 65 1007.7
20260509122730 51 221 4.0 5.0 0.00 0.00 0.00 65 1008.7
20260509122242 51 227 4.0 6.0 0.00 0.00 0.00 65 1008.7
20260509121722 51 211 5.0 6.0 0.00 0.00 0.00 64 1008.6
20260509121546 50 216 4.0 6.0 0.00 0.00 0.00 64 1007.6
20260509121236 50 224 4.0 6.0 0.00 0.00 0.00 64 1008.6
20260509120747 50 227 4.0 7.0 0.00 0.00 0.00 64 1008.6
20260509120238 50 225 5.0 7.0 0.00 0.00 0.00 64 1008.7
20260509120037 49 230 4.0 7.0 0.00 0.00 0.00 64 1007.6
20260509115751 49 219 5.0 6.0 0.00 0.00 0.00 65 1008.6
20260509115242 49 215 4.0 6.0 0.00 0.00 0.00 64 1008.4
20260509114725 49 215 4.0 6.0 0.00 0.00 0.00 65 1008.4
20260509114517 48 207 3.0 6.0 0.00 0.00 0.00 65 1007.3
20260509114255 49 207 4.0 6.0 0.00 0.00 0.00 64 1008.3
20260509113745 49 207 5.0 6.0 0.00 0.00 0.00 64 1008.3
20260509113229 49 221 5.0 6.0 0.00 0.00 0.00 65 1008.3
20260509113005 48 214 4.0 6.0 0.00 0.00 0.00 64 1007.3
20260509112740 49 214 4.0 5.0 0.00 0.00 0.00 64 1008.3
20260509112222 49 219 4.0 5.0 0.00 0.00 0.00 64 1008.2
20260509111735 49 224 4.0 5.0 0.00 0.00 0.00 63 1008.2
20260509111512 48 221 3.0 5.0 0.00 0.00 0.00 63 1007.1
20260509111248 49 227 3.0 5.0 0.00 0.00 0.00 63 1008.1
20260509110732 49 227 3.0 5.0 0.00 0.00 0.00 63 1008.0
20260509110305 49 225 3.0 5.0 0.00 0.00 0.00 64 1008.1
20260509110031 48 236 3.0 6.0 0.00 0.00 0.00 64 1007.0
20260509105727 49 234 4.0 6.0 0.00 0.00 0.00 64 1008.2
20260509105257 49 221 4.0 6.0 0.00 0.00 0.00 65 1008.2
20260509104808 49 225 4.0 6.0 0.00 0.00 0.00 65 1008.2
20260509104556 48 220 4.0 6.0 0.00 0.00 0.00 65 1007.1
20260509104234 49 217 4.0 6.0 0.00 0.00 0.00 66 1008.2
20260509103741 49 221 5.0 6.0 0.00 0.00 0.00 66 1008.2
20260509103223 49 218 5.0 7.0 0.00 0.00 0.00 66 1008.2
20260509103056 49 217 4.0 7.0 0.00 0.00 0.00 66 1007.1
20260509102734 49 220 5.0 7.0 0.00 0.00 0.00 66 1008.1
20260509102306 50 215 6.0 8.0 0.00 0.00 0.00 65 1008.1
20260509101726 50 227 5.0 8.0 0.00 0.00 0.00 65 1008.2
20260509101508 49 227 5.0 8.0 0.00 0.00 0.00 64 1007.1
20260509101240 50 233 6.0 8.0 0.00 0.00 0.00 64 1008.2
20260509100721 50 228 5.0 8.0 0.00 0.00 0.00 64 1008.1
20260509100230 50 224 5.0 7.0 0.00 0.00 0.00 64 1008.1
20260509100012 50 221 4.0 7.0 0.00 0.00 0.00 64 1007.1
20260509095739 50 220 5.0 7.0 0.00 0.00 0.00 63 1008.2
20260509095222 50 215 5.0 7.0 0.00 0.00 0.00 62 1008.2
20260509094733 50 238 6.0 7.0 0.00 0.00 0.00 60 1008.3
20260509094511 50 227 4.0 6.0 0.00 0.00 0.00 60 1007.2
20260509094246 50 215 4.0 6.0 0.00 0.00 0.00 59 1008.3
20260509093727 51 215 4.0 6.0 0.00 0.00 0.00 59 1008.2